QPF
0.09 0.06 0.04 0.02 0.01 0.00 0.00 0.00 0.00 0.00 0.00 0.00 0.00 0.00 0.00 0.00 0.00 0.00 0.00 0.00 0.00 0.00 0.00 0.00 0.00 0.00 0.00 0.00 0.00 0.00 0.00 0.00
0.04 0.05 0.05 0.05 0.02 0.01 0.00 0.00 0.00 0.00 0.00 0.00 0.00 0.00 0.00 0.00 0.00 0.00 0.00 0.00 0.00 0.00 0.00 0.00 0.00 0.00 0.00 0.00 0.00 0.00 0.00 0.00
0.02 0.03 0.04 0.04 0.03 0.01 0.00 0.00 0.00 0.00 0.00 0.00 0.00 0.00 0.00 0.00 0.00 0.00 0.00 0.00 0.00 0.00 0.00 0.00 0.00 0.00 0.00 0.00 0.00 0.00 0.00 0.00
0.00 0.01 0.02 0.02 0.01 0.01 0.00 0.00 0.00 0.00 0.00 0.00 0.00 0.00 0.00 0.00 0.00 0.00 0.00 0.00 0.00 0.00 0.00 0.00 0.00 0.00 0.00 0.00 0.00 0.00 0.00 0.00
0.00 0.00 0.00 0.00 0.00 0.00 0.00 0.00 0.00 0.00 0.00 0.00 0.00 0.01 0.00 0.00 0.00 0.00 0.00 0.00 0.00 0.00 0.00 0.00 0.00 0.00 0.00 0.00 0.00 0.00 0.00 0.00
0.00 0.00 0.00 0.00 0.00 0.00 0.00 0.00 0.00 0.00 0.00 0.00 0.04 0.04 0.03 0.00 0.00 0.00 0.00 0.00 0.00 0.00 0.00 0.00 0.00 0.00 0.00 0.00 0.00 0.00 0.00 0.00
0.00 0.00 0.00 0.00 0.00 0.00 0.00 0.00 0.00 0.00 0.00 0.02 0.04 0.03 0.03 0.00 0.00 0.00 0.00 0.00 0.00 0.00 0.00 0.00 0.00 0.00 0.00 0.00 0.00 0.00 0.00 0.00
0.00 0.00 0.00 0.00 0.00 0.00 0.00 0.00 0.00 0.00 0.00 0.06 0.06 0.08 0.07 0.02 0.00 0.00 0.00 0.00 0.00 0.00 0.00 0.00 0.00 0.00 0.00 0.00 0.00 0.00 0.00 0.00
0.00 0.00 0.00 0.00 0.00 0.00 0.00 0.00 0.00 0.00 0.00 0.03 0.06 0.03 0.01 0.00 0.00 0.00 0.00 0.00 0.00 0.00 0.00 0.00 0.00 0.00 0.00 0.00 0.00 0.00 0.00 0.00
0.00 0.00 0.00 0.00 0.00 0.00 0.01 0.00 0.00 0.00 0.00 0.01 0.01 0.00 0.00 0.00 0.00 0.00 0.00 0.00 0.00 0.00 0.00 0.00 0.00 0.00 0.00 0.00 0.00 0.00 0.00 0.00
0.00 0.01 0.01 0.01 0.02 0.00 0.00 0.00 0.00 0.00 0.00 0.00 0.00 0.00 0.00 0.00 0.00 0.00 0.00 0.00 0.00 0.00 0.00 0.00 0.00 0.00 0.00 0.00 0.00 0.00 0.00 0.00
0.00 0.01 0.01 0.01 0.00 0.00 0.00 0.00 0.00 0.00 0.00 0.00 0.00 0.00 0.00 0.00 0.00 0.00 0.00 0.00 0.00 0.00 0.00 0.00 0.00 0.00 0.00 0.00 0.00 0.00 0.00 0.00
0.02 0.01 0.00 0.00 0.00 0.00 0.00 0.00 0.00 0.00 0.00 0.00 0.00 0.00 0.00 0.00 0.00 0.00 0.00 0.00 0.00 0.00 0.00 0.00 0.00 0.00 0.00 0.00 0.00 0.00 0.00 0.00
0.00 0.00 0.00 0.00 0.00 0.00 0.00 0.00 0.00 0.00 0.00 0.00 0.00 0.00 0.00 0.00 0.00 0.00 0.00 0.00 0.00 0.00 0.00 0.00 0.00 0.00 0.00 0.00 0.00 0.00 0.00 0.00
0.00 0.00 0.00 0.00 0.00 0.00 0.00 0.00 0.00 0.00 0.00 0.00 0.00 0.00 0.00 0.00 0.00 0.00 0.00 0.00 0.00 0.00 0.00 0.00 0.00 0.00 0.00 0.00 0.00 0.00 0.00 0.00
0.00 0.00 0.00 0.00 0.00 0.00 0.00 0.00 0.00 0.00 0.00 0.00 0.00 0.00 0.00 0.00 0.00 0.00 0.00 0.00 0.00 0.00 0.00 0.00 0.00 0.00 0.00 0.00 0.00 0.00 0.00 0.00
0.00 0.00 0.00 0.00 0.00 0.00 0.00 0.00 0.00 0.00 0.00 0.00 0.00 0.00 0.00 0.00 0.00 0.00 0.00 0.00 0.00 0.00 0.00 0.00 0.00 0.00 0.00 0.00 0.00 0.00 0.00 0.00
0.00 0.00 0.00 0.00 0.00 0.00 0.00 0.00 0.00 0.00 0.00 0.00 0.00 0.00 0.00 0.00 0.00 0.00 0.00 0.00 0.00 0.00 0.00 0.00 0.00 0.00 0.00 0.00 0.00 0.00 0.00 0.00
0.00 0.00 0.00 0.00 0.00 0.00 0.00 0.00 0.00 0.00 0.00 0.00 0.00 0.00 0.00 0.00 0.00 0.00 0.00 0.00 0.00 0.00 0.00 0.00 0.00 0.00 0.00 0.00 0.00 0.00 0.00 0.00
0.00 0.00 0.00 0.00 0.00 0.00 0.00 0.00 0.00 0.00 0.00 0.00 0.00 0.00 0.00 0.00 0.00 0.00 0.00 0.00 0.00 0.00 0.00 0.00 0.00 0.00 0.00 0.00 0.00 0.00 0.00 0.00
MSLP
1019.34 1019.66 1020.31 1021.03 1021.21 1021.43 1021.83 1022.03 1022.40 1022.62 1022.71 1023.02 1022.96 1022.90 1022.99 1022.98 1022.94 1023.09 1022.76 1022.75 1022.68 1022.69 1022.53 1022.68 1022.39 1022.15 1022.10 1021.77 1021.56 1021.34 1020.20 1019.76
1019.34 1019.68 1020.27 1020.61 1020.79 1021.65 1022.10 1022.30 1022.86 1023.12 1022.96 1022.95 1023.11 1023.13 1023.21 1023.00 1023.02 1023.06 1022.88 1022.86 1022.79 1022.62 1022.58 1022.46 1022.27 1022.14 1022.04 1021.88 1021.42 1020.79 1020.18 1019.83
1019.21 1019.61 1020.29 1020.62 1020.59 1021.69 1022.11 1022.62 1022.98 1022.99 1023.07 1023.23 1022.97 1022.37 1022.55 1022.45 1022.95 1022.98 1022.95 1022.84 1022.77 1022.68 1022.64 1022.49 1022.21 1021.70 1021.59 1021.67 1021.24 1020.28 1020.25 1019.76
1020.11 1020.38 1020.78 1020.93 1021.20 1021.34 1021.67 1022.07 1022.23 1022.37 1022.25 1022.74 1022.35 1022.80 1022.96 1023.05 1023.01 1023.01 1022.96 1022.79 1022.75 1022.57 1022.43 1022.08 1021.71 1021.07 1020.84 1020.99 1020.61 1020.82 1020.14 1020.00
1020.55 1020.93 1020.95 1021.00 1021.09 1021.17 1021.36 1021.83 1022.17 1022.31 1022.71 1022.87 1022.66 1022.94 1022.93 1022.81 1022.51 1022.26 1022.41 1022.70 1022.08 1021.96 1021.67 1021.45 1021.76 1021.65 1021.34 1021.31 1021.10 1020.68 1020.50 1020.14
1020.52 1020.41 1020.89 1021.29 1020.98 1021.17 1021.63 1021.72 1022.14 1022.14 1022.63 1022.82 1023.05 1023.17 1023.50 1023.23 1022.64 1022.58 1022.60 1022.40 1022.40 1022.11 1021.69 1021.80 1021.87 1021.79 1021.75 1021.59 1021.49 1021.20 1020.77 1020.39
1020.23 1020.86 1021.19 1021.48 1021.36 1021.53 1021.82 1021.97 1022.10 1022.24 1022.38 1022.67 1023.03 1023.44 1023.81 1023.74 1023.32 1022.90 1022.65 1022.38 1022.22 1022.06 1021.78 1021.66 1021.67 1021.69 1021.83 1021.71 1021.56 1021.47 1021.26 1020.65
1020.56 1020.95 1021.16 1021.28 1021.34 1021.85 1022.34 1022.73 1023.13 1023.38 1023.27 1023.64 1023.50 1023.21 1023.19 1024.23 1023.54 1023.00 1022.58 1022.39 1022.12 1021.98 1022.00 1021.86 1021.87 1021.99 1021.68 1021.90 1021.74 1021.55 1021.31 1021.03
1020.43 1021.02 1021.29 1021.65 1021.83 1022.08 1022.96 1023.08 1023.09 1022.98 1023.12 1023.37 1023.53 1023.42 1023.36 1024.08 1023.42 1022.98 1022.75 1022.66 1022.55 1022.46 1022.32 1022.29 1022.06 1021.93 1021.76 1021.75 1021.62 1021.42 1021.40 1021.12
1020.49 1020.85 1021.31 1021.63 1021.84 1022.96 1023.03 1023.13 1023.31 1023.56 1023.29 1023.52 1023.83 1023.92 1023.91 1023.97 1023.49 1023.67 1023.62 1023.26 1023.04 1022.79 1022.70 1022.47 1022.32 1022.28 1022.10 1021.78 1021.43 1021.25 1021.08 1020.90
1020.34 1020.89 1021.35 1022.06 1022.48 1022.20 1022.68 1023.19 1023.39 1023.65 1023.45 1023.90 1024.46 1024.22 1024.31 1024.18 1024.02 1023.91 1023.56 1023.40 1023.49 1023.35 1023.08 1023.23 1022.65 1022.51 1022.23 1021.77 1021.40 1021.07 1020.61 1020.24
1020.54 1020.72 1021.01 1021.21 1021.35 1022.17 1022.38 1022.73 1023.11 1023.32 1023.71 1024.00 1024.18 1024.23 1024.30 1024.00 1024.03 1024.09 1023.87 1023.62 1023.46 1023.54 1023.51 1023.22 1023.19 1022.95 1022.52 1021.61 1021.23 1021.07 1020.67 1020.25
1020.14 1020.69 1021.06 1021.16 1021.38 1021.59 1022.02 1022.34 1023.05 1023.56 1023.97 1024.50 1024.59 1024.60 1024.44 1024.38 1024.07 1024.01 1024.00 1023.75 1023.94 1023.80 1023.51 1023.16 1022.99 1022.96 1022.63 1021.42 1021.16 1020.67 1020.35 1020.61
1020.16 1020.55 1020.97 1021.26 1021.50 1021.79 1022.23 1022.54 1023.12 1023.73 1024.23 1024.59 1024.64 1024.61 1024.42 1024.25 1024.21 1023.93 1023.88 1023.77 1023.62 1023.79 1023.75 1023.33 1022.89 1023.24 1023.39 1022.43 1020.90 1020.56 1019.98 1020.32
1020.11 1020.61 1021.32 1021.87 1022.10 1022.31 1022.81 1023.14 1023.34 1023.42 1023.84 1023.96 1024.41 1024.60 1024.46 1024.33 1024.27 1024.17 1024.10 1023.85 1023.57 1023.71 1023.83 1023.76 1023.42 1023.33 1023.55 1023.36 1022.05 1021.34 1021.37 1021.39
1020.43 1021.15 1022.03 1022.62 1022.62 1022.67 1023.06 1023.12 1023.31 1024.22 1024.26 1024.29 1024.48 1024.67 1024.63 1024.45 1024.25 1024.18 1024.03 1023.81 1023.66 1023.74 1023.97 1024.11 1024.02 1023.48 1023.48 1023.33 1023.47 1023.25 1022.37 1021.38
1021.44 1021.92 1022.52 1023.06 1023.15 1023.17 1023.38 1023.81 1024.23 1024.52 1024.68 1024.77 1024.61 1024.41 1024.39 1024.22 1024.08 1023.98 1023.78 1023.58 1023.55 1023.98 1024.28 1024.34 1024.25 1024.06 1023.82 1023.63 1023.44 1023.29 1023.13 1022.73
1022.09 1022.37 1022.93 1023.38 1023.58 1023.98 1024.32 1024.53 1024.72 1024.79 1025.01 1024.88 1024.68 1024.56 1024.29 1024.09 1023.88 1023.91 1023.75 1023.57 1023.91 1024.16 1024.54 1024.61 1024.70 1024.54 1024.46 1024.29 1024.01 1023.80 1023.48 1023.13
1022.47 1022.79 1023.32 1023.83 1024.11 1024.44 1024.70 1024.95 1025.17 1025.19 1025.40 1025.27 1025.21 1024.84 1024.58 1024.35 1024.28 1023.89 1023.60 1023.88 1024.38 1024.75 1024.77 1024.67 1024.78 1024.74 1024.72 1024.50 1024.34 1024.05 1023.85 1023.49
1022.55 1022.98 1023.52 1024.11 1024.51 1024.72 1025.11 1025.42 1025.52 1025.55 1025.73 1025.74 1025.52 1025.35 1025.03 1024.77 1024.37 1023.89 1024.09 1024.49 1024.94 1025.21 1024.62 1024.44 1024.64 1024.63 1024.64 1024.56 1024.28 1023.99 1023.74 1023.45
Thickness
5653 5651 5649 5644 5643 5642 5640 5639 5637 5635 5636 5633 5634 5633 5631 5630 5629 5626 5628 5627 5626 5623 5623 5618 5620 5622 5620 5621 5620 5620 5624 5625
5651 5647 5644 5642 5643 5639 5636 5635 5630 5628 5630 5631 5628 5626 5624 5626 5623 5621 5622 5621 5620 5619 5616 5616 5616 5615 5614 5614 5616 5618 5616 5616
5649 5646 5642 5641 5643 5637 5635 5632 5628 5627 5624 5623 5625 5625 5622 5621 5617 5617 5616 5615 5615 5613 5611 5611 5611 5613 5612 5609 5610 5612 5610 5611
5642 5641 5639 5640 5638 5638 5636 5631 5627 5628 5629 5622 5622 5616 5612 5611 5611 5611 5610 5610 5609 5609 5608 5609 5609 5609 5608 5606 5606 5603 5606 5605
5641 5640 5641 5639 5637 5638 5635 5630 5628 5626 5621 5616 5616 5611 5608 5606 5607 5608 5605 5604 5605 5605 5606 5605 5601 5599 5599 5597 5597 5599 5598 5598
5640 5641 5637 5635 5637 5635 5631 5629 5624 5623 5616 5612 5608 5605 5600 5598 5601 5600 5598 5598 5596 5597 5599 5596 5593 5591 5590 5589 5589 5589 5591 5591
5643 5636 5633 5632 5632 5631 5626 5623 5620 5617 5612 5609 5605 5602 5594 5590 5590 5592 5594 5593 5591 5589 5589 5589 5586 5584 5581 5580 5580 5580 5580 5583
5638 5635 5632 5629 5629 5623 5618 5612 5607 5603 5601 5598 5597 5599 5598 5583 5582 5584 5587 5585 5585 5583 5580 5578 5576 5573 5573 5570 5569 5569 5570 5571
5637 5632 5629 5625 5622 5618 5610 5607 5604 5601 5596 5593 5590 5591 5589 5577 5577 5576 5575 5574 5572 5570 5568 5565 5565 5562 5562 5560 5559 5558 5557 5557
5635 5631 5626 5623 5621 5613 5608 5598 5594 5589 5590 5587 5582 5577 5574 5569 5567 5563 5560 5559 5558 5557 5555 5554 5552 5550 5549 5549 5548 5547 5547 5545
5634 5628 5622 5618 5613 5611 5600 5595 5586 5581 5579 5573 5567 5566 5560 5556 5554 5551 5550 5548 5544 5542 5541 5537 5537 5536 5536 5536 5536 5536 5535 5535
5628 5625 5622 5618 5614 5604 5597 5589 5581 5576 5570 5564 5559 5553 5549 5547 5543 5540 5538 5537 5534 5530 5526 5524 5521 5521 5521 5523 5522 5519 5519 5519
5628 5622 5617 5614 5608 5602 5594 5586 5577 5570 5563 5555 5550 5545 5542 5538 5535 5533 5529 5526 5520 5516 5514 5511 5509 5506 5504 5511 5508 5505 5504 5498
5622 5617 5612 5606 5600 5593 5586 5580 5572 5561 5551 5543 5537 5533 5530 5527 5523 5521 5517 5513 5509 5505 5499 5498 5495 5486 5481 5483 5490 5488 5484 5476
5617 5612 5603 5594 5588 5582 5575 5568 5560 5553 5544 5538 5530 5525 5522 5518 5514 5509 5504 5501 5498 5490 5484 5479 5475 5467 5459 5453 5459 5456 5447 5440
5610 5600 5589 5581 5578 5573 5564 5557 5549 5537 5532 5527 5520 5515 5510 5506 5501 5497 5492 5487 5482 5474 5467 5458 5451 5445 5436 5427 5418 5411 5408 5412
5595 5588 5580 5572 5566 5560 5553 5544 5535 5528 5521 5515 5510 5505 5499 5494 5490 5485 5480 5473 5466 5455 5444 5435 5425 5418 5409 5401 5391 5382 5374 5365
5584 5579 5570 5561 5554 5545 5538 5530 5524 5519 5511 5505 5500 5493 5488 5482 5476 5469 5463 5456 5445 5433 5421 5411 5399 5390 5380 5369 5359 5348 5338 5329
5573 5567 5558 5550 5543 5535 5528 5520 5513 5506 5498 5491 5484 5479 5474 5467 5460 5454 5447 5436 5423 5411 5401 5389 5376 5364 5350 5340 5326 5315 5305 5300
5565 5558 5550 5541 5533 5526 5516 5507 5500 5492 5483 5474 5468 5461 5456 5450 5445 5441 5431 5417 5403 5389 5380 5370 5355 5339 5325 5312 5301 5293 5288 5285